This is the latest recevied weather packets stored in our database for station/object SQ9NFI-4. If no packets are shown the sender has not sent any weather packets the latest 10 day(s).
| Time | Temp. | Humidity | Pressure | Rain* | Wind** | Luminosity | Snow |
|---|---|---|---|---|---|---|---|
| 1777738516 | 22.78° C | 29% | 1021.7 hPa | 0 mm | - | 100 W/m² | - |
| 1777738216 | 22.78° C | 28% | 1021.7 hPa | 0 mm | - | 116 W/m² | - |
| 1777737916 | 22.78° C | 28% | 1021.7 hPa | 0 mm | - | 119 W/m² | - |
| 1777737616 | 22.78° C | 27% | 1022 hPa | 0 mm | - | 130 W/m² | - |
| 1777737316 | 23.33° C | 28% | 1022 hPa | 0 mm | - | 142 W/m² | - |
| 1777737016 | 23.33° C | 28% | 1022 hPa | 0 mm | - | 151 W/m² | - |
| 1777736716 | 23.33° C | 27% | 1022 hPa | 0 mm | - | 158 W/m² | - |
| 1777736416 | 23.33° C | 28% | 1022 hPa | 0 mm | - | 173 W/m² | - |
| 1777736116 | 22.78° C | 27% | 1022.4 hPa | 0 mm | - | 187 W/m² | - |
| 1777735816 | 23.33° C | 26% | 1022.4 hPa | 0 mm | - | 198 W/m² | - |
| 1777735516 | 23.33° C | 27% | 1022.4 hPa | 0 mm | - | 211 W/m² | - |
| 1777735216 | 23.33° C | 27% | 1022.4 hPa | 0 mm | - | 225 W/m² | - |
| 1777734916 | 23.33° C | 26% | 1022.4 hPa | 0 mm | - | 235 W/m² | - |
| 1777734616 | 23.89° C | 26% | 1022.4 hPa | 0 mm | - | 248 W/m² | - |
| 1777734316 | 23.89° C | 26% | 1022.4 hPa | 0 mm | - | 261 W/m² | - |
| 1777734016 | 23.33° C | 25% | 1022.4 hPa | 0 mm | - | 275 W/m² | - |
| 1777733716 | 23.33° C | 25% | 1022.4 hPa | 0 mm | - | 292 W/m² | - |
| 1777733416 | 23.33° C | 26% | 1022.4 hPa | 0 mm | - | 304 W/m² | - |
| 1777733116 | 23.89° C | 26% | 1022.4 hPa | 0 mm | - | 319 W/m² | - |
| 1777732816 | 23.33° C | 25% | 1022.4 hPa | 0 mm | - | 328 W/m² | - |
| 1777732516 | 23.33° C | 26% | 1022.7 hPa | 0 mm | - | 338 W/m² | - |
| 1777732216 | 23.33° C | 26% | 1022.7 hPa | 0 mm | - | 356 W/m² | - |
| 1777731916 | 23.89° C | 25% | 1022.7 hPa | 0 mm | - | 367 W/m² | - |
| 1777731616 | 23.89° C | 25% | 1022.7 hPa | 0 mm | - | 380 W/m² | - |
| 1777731316 | 24.44° C | 26% | 1022.7 hPa | 0 mm | - | 395 W/m² | - |
* Rain latest hour (hover to see other rain measurements)
** Current wind speed in m/s (hover to see current wind gust speed)